Погода в Тангеранге

Индонезия     6°17′35″S   106°42′41″E
темп.,
°C
ветер,
м/с
пор.,
м/с
влажн.,
%
обл.,
%
осадки,
мм/ч
давл.,
гПа
погр.,
м
2 марта, вт
вт201:00+29ссз237198 0.1 1010636
04:00+28с1270100 0.1 1009619
07:00+29сз1267100 0.1 1011765
10:00+32сз335388 0.1 10121299
13:00+33сз554993 1.8 10101460
16:00+33ссз554994 0.2 10071372
19:00+31сз335697 0.6 1010883
22:00+30сз126082 0.0 1011754
3 марта, ср
ср301:00+29з236685 0.0 1010508
04:00+28зюз236761 0.1 1009423
07:00+28зюз236669 0.1 1010506
10:00+31зсз335566 0.1 10121237
13:00+33сз554866 3.5 10091470
16:00+32ссз555182 0.9 10071057
19:00+30ссз336092 0.9 1010778
22:00+30сз236496 0.1 1012775
4 марта, чт
чт401:00+29з236777 0.4 1011503
04:00+28юз226877 0.1 1010357
07:00+28юз116687 0.4 1012416
10:00+30св125858 0.1 10121008
13:00+33с544757 0.3 10101359
16:00+32ссз4451100 1.3 10081090
19:00+30ссз3355100 1.5 1010773
22:00+30вюв0157100 0.0 1012460
5 марта, пт
пт501:00+29юз2261100 0.0 1011432
04:00+29всв1160100 0.0 1010441
07:00+29всв0063100 0.0 1011467
10:00+31сз2251100 0.0 1012854
13:00+34ссв334085 0.0 10091597
16:00+32с545231 0.0 1007973
19:00+30с336450 0.4 1009670
22:00+29с226697 5.4 1011659
6 марта, сб
сб601:00+28ссз127196 8.3 1010207
04:00+28с116494 1.6 1009498
07:00+28всв226691 1.6 1011535
10:00+32ссв325442 0.0 10111288
13:00+33с555061 0.5 10091268
16:00+32ссз4450100 0.9 10081244
19:00+30ююз1161100 1.3 1010717
22:00+29ю1162100 0.0 1011643